Location: Killam
(52.7910°N, 111.8608°W)
Time: 00:54:46
(UTC+00:00)

AO-85 - Pass Details

Date: 13 December 2023
Orbit: 516 x 753 km, 64.8° (Epoch: 04 January)

Event Time Altitude Azimuth Distance (km) Brightness Sun altitude
Rises 23:59:13 0° 314° (NW) 2,807 ? -6.8°
Reaches altitude 10° 00:01:41 10° 327° (NNW) 1,943 ? -7.1°
Maximum altitude 00:05:28 27° 26° (NNE) 1,200 ? -7.6°
Drops below altitude 10° 00:09:27 10° 85° (E) 2,061 ? -8.1°
Enters shadow 00:10:11 - 90° (E) 2,308 ? -8.2°
